CYGFM05 (41884 NORAD) Tracking and Keplerian Element Data

This shows tracking and keplerian element data for the satellite.

Feedback or suggestion? Click here.




ElementValue
Catalog41884
NameCYGFM05
Epoch Orbit10661
Epoch Day322.65842545
Epoch Year2018
RAAN41.8184
Inclination34.9576
Eccentricity0.0016665
Argument of Perigee295.8511
Mean Anonmoly64.0482
Mean Motion15.1425134
Decay Rate3.79E-06
L11 41884U 16078A 18322.65842545 .00000379 00000-0 21951-4 0 9993
L22 41884 34.9576 41.8184 0016665 295.8511 64.0482 15.14251340106616

Live tracking and technical data element details for CYGFM05 (NORAD 41884). CYGFM05 can be tracked NOW for your location showing map with azimuth and elevation plus other details from your city location.

Track the satellite on the map from your city or location and see movement details for azimuth, elevation, latitude, longitude, range, height, and movement on the map or in text.







IsCatalogInMostPopularTable: catalog: 41884, numindb: 119
Update: records affected: 1



GetName: 41884 CYGFM05

Hit Count: updated at: Mon, 19 Nov 2018 10:59:05 GMT